1486278000.28,40819,9.31,72206.0,-5.41,-5.93,-5.93,0,*54
1486278001.57,40820,9.31,72206.5,-5.41,-5.93,-5.85,0,*59
1486278002.85,40821,9.31,72202.3,-5.41,-5.93,-5.85,0,*58
1486278004.13,40822,9.31,72202.0,-5.41,-5.93,-5.93,0,*5C
1486278005.42,40823,9.31,72204.8,-5.41,-5.93,-5.85,0,*5A
1486278006.7,40824,9.31,72204.0,-5.41,-5.85,-5.85,0,*5A
1486278007.98,40825,9.31,72202.8,-5.41,-5.93,-5.93,0,*5B
1486278009.26,40826,9.31,72206.3,-5.41,-5.93,-5.85,0,*5F
1486278010.55,40827,9.31,72202.5,-5.41,-5.85,-5.85,0,*59
1486278011.83,40828,9.31,72204.5,-5.41,-5.81,-5.85,0,*52
1486278013.11,40829,9.31,72206.5,-5.41,-5.85,-5.85,0,*57
1486278014.4,40830,9.31,72204.3,-5.41,-5.85,-5.85,0,*5F
1486278015.68,40831,9.31,72206.3,-5.41,-5.93,-5.85,0,*59
1486278016.97,40832,9.31,72204.8,-5.41,-5.85,-5.85,0,*5D
1486278018.25,40833,9.31,72204.8,-5.41,-5.85,-5.85,0,*5C
1486278019.5,40834,9.31,72204.0,-5.41,-5.97,-5.81,0,*5C
1486278020.79,40835,9.31,72204.3,-5.41,-5.93,-5.85,0,*5D
1486278022.07,40836,9.31,72206.8,-5.41,-5.93,-5.85,0,*5E
1486278023.32,40837,9.31,72202.8,-5.41,-5.97,-5.93,0,*5C
1486278024.6,40838,9.31,72206.3,-5.41,-5.93,-5.93,0,*57
1486278025.88,40839,9.31,72202.8,-5.41,-5.93,-5.93,0,*56
1486278027.14,40840,9.31,72206.3,-5.41,-5.97,-5.93,0,*5C
1486278028.42,40841,9.31,72200.8,-5.41,-5.93,-5.93,0,*59
1486278029.7,40842,9.31,72206.0,-5.41,-5.93,-5.93,0,*5A
1486278030.95,40843,9.31,72204.8,-5.41,-5.97,-5.93,0,*5F
1486278032.2,40844,9.31,72204.0,-5.41,-5.97,-5.93,0,*58
1486278033.48,40845,9.31,72204.3,-5.41,-5.93,-5.93,0,*5D
1486278034.73,40846,9.31,72204.3,-5.39,-5.89,-5.89,0,*51
1486278035.98,40847,9.31,72202.5,-5.39,-5.81,-5.89,0,*58
1486278037.26,40848,9.31,72206.5,-5.41,-5.81,-5.89,0,*58
1486278038.51,40849,9.31,72202.5,-5.39,-5.81,-5.81,0,*5E
1486278039.79,40850,9.31,72206.0,-5.41,-5.93,-5.81,0,*5A
1486278041.08,40851,9.31,72204.3,-5.41,-5.85,-5.85,0,*58
1486278042.36,40852,9.31,72204.3,-5.41,-5.85,-5.85,0,*5B
1486278043.61,40853,9.31,72204.5,-5.39,-5.81,-5.81,0,*55
1486278044.86,40854,9.31,72206.8,-5.39,-5.77,-5.81,0,*5B
1486278046.14,40855,9.31,72204.8,-5.41,-5.85,-5.81,0,*58
1486278047.42,40856,9.31,72206.0,-5.41,-5.85,-5.81,0,*5B
1486278048.66,40857,9.31,72204.8,-5.39,-5.77,-5.77,0,*51
1486278049.91,40858,9.31,72204.5,-5.39,-5.77,-5.77,0,*5E
1486278051.19,40859,9.31,72202.3,-5.41,-5.85,-5.81,0,*54
1486278052.44,40860,9.31,72204.3,-5.39,-5.81,-5.81,0,*55
1486278053.68,40861,9.31,72202.8,-5.39,-5.81,-5.77,0,*5D
1486278054.93,40862,9.31,72204.8,-5.39,-5.77,-5.81,0,*5E
1486278056.17,40863,9.31,72206.0,-5.39,-5.77,-5.77,0,*56
1486278057.41,40864,9.31,72204.5,-5.39,-5.77,-5.77,0,*51
1486278058.66,40865,9.31,72204.8,-5.39,-5.77,-5.77,0,*50
1486278059.9,40866,9.31,72204.8,-5.35,-5.77,-5.77,0,*5F
1486278061.14,40867,9.31,72206.3,-5.35,-5.73,-5.77,0,*5A
1486278062.38,40868,9.31,72206.0,-5.35,-5.77,-5.77,0,*51
1486278063.63,40869,9.31,72204.8,-5.39,-5.81,-5.81,0,*5C
1486278064.88,40870,9.31,72200.5,-5.39,-5.89,-5.81,0,*5C
1486278066.13,40871,9.31,72204.8,-5.39,-5.89,-5.89,0,*55
1486278067.38,40872,9.31,72204.0,-5.39,-5.89,-5.89,0,*56
1486278068.63,40873,9.31,72204.3,-5.35,-5.85,-5.85,0,*5B
1486278069.88,40874,9.31,72206.5,-5.35,-5.89,-5.89,0,*5C
1486278071.14,40875,9.31,72206.8,-5.35,-5.85,-5.85,0,*5D
1486278072.39,40876,9.31,72204.0,-5.35,-5.85,-5.85,0,*5E
1486278073.64,40877,9.31,72204.0,-5.39,-5.93,-5.89,0,*58
1486278074.89,40878,9.31,72204.8,-5.39,-5.89,-5.89,0,*5C
1486278076.14,40879,9.31,72202.5,-5.39,-5.89,-5.93,0,*56
1486278077.39,40880,9.31,72204.0,-5.39,-5.89,-5.81,0,*53
1486278078.64,40881,9.31,72204.5,-5.39,-5.93,-5.89,0,*51
1486278079.9,40882,9.31,72204.3,-5.35,-5.85,-5.85,0,*55
1486278081.15,40883,9.31,72206.8,-5.35,-5.85,-5.85,0,*54
1486278082.4,40884,9.31,72204.5,-5.35,-5.89,-5.85,0,*5F
1486278083.65,40885,9.31,72206.0,-5.35,-5.85,-5.85,0,*52
1486278084.91,40886,9.31,72202.5,-5.35,-5.85,-5.85,0,*51
1486278086.16,40887,9.31,72202.8,-5.35,-5.89,-5.85,0,*5C
1486278087.41,40888,9.31,72206.3,-5.35,-5.85,-5.85,0,*5F
1486278088.66,40889,9.31,72204.0,-5.35,-5.89,-5.85,0,*52
1486278089.91,40890,9.31,72206.8,-5.35,-5.89,-5.89,0,*56
1486278091.17,40891,9.31,72206.0,-5.35,-5.85,-5.85,0,*57
1486278092.44,40892,9.31,72206.8,-5.33,-5.85,-5.77,0,*5F
1486278093.68,40893,9.31,72206.5,-5.35,-5.77,-5.73,0,*51
1486278094.93,40894,9.31,72204.3,-5.39,-5.89,-5.81,0,*56
1486278096.18,40895,9.31,72204.3,-5.39,-5.81,-5.81,0,*5F
1486278097.43,40896,9.31,72204.5,-5.35,-5.77,-5.85,0,*5D
1486278098.68,40897,9.31,72204.0,-5.35,-5.77,-5.85,0,*5C
1486278099.92,40898,9.38,72208.3,-5.35,-5.85,-5.77,0,*53
1486278101.17,40899,9.31,72204.3,-5.35,-5.85,-5.77,0,*52
1486278102.43,40900,9.31,72206.0,-5.35,-5.85,-5.85,0,*5E
1486278103.68,40901,9.31,72206.3,-5.35,-5.85,-5.89,0,*53
1486278104.93,40902,9.31,72204.8,-5.35,-5.85,-5.85,0,*5C
1486278106.19,40903,9.31,72206.8,-5.35,-5.85,-5.85,0,*5D
1486278107.44,40904,9.31,72206.0,-5.35,-5.85,-5.85,0,*5A
1486278108.72,40905,9.31,72204.0,-5.33,-5.85,-5.85,0,*5D
1486278109.96,40906,9.31,72206.0,-5.35,-5.89,-5.77,0,*59
1486278111.21,40907,9.31,72204.8,-5.35,-5.77,-5.77,0,*59
1486278112.47,40908,9.38,72206.5,-5.33,-5.77,-5.77,0,*50
1486278113.74,40909,9.31,72206.0,-5.33,-5.77,-5.77,0,*51
1486278114.98,40910,9.31,72204.5,-5.35,-5.77,-5.77,0,*5F
1486278116.23,40911,9.38,72208.0,-5.35,-5.77,-5.77,0,*5E
1486278117.49,40912,9.31,72204.3,-5.33,-5.77,-5.77,0,*5B
1486278118.76,40913,9.31,72200.8,-5.33,-5.77,-5.77,0,*5A
1486278120.02,40914,9.31,72204.0,-5.33,-5.73,-5.73,0,*5D
1486278121.26,40915,9.31,72206.3,-5.35,-5.77,-5.77,0,*5A
1486278122.5,40916,9.38,72206.5,-5.35,-5.73,-5.73,0,*59
1486278123.74,40917,9.38,72206.3,-5.35,-5.73,-5.73,0,*58
1486278125.01,40918,9.31,72204.3,-5.33,-5.65,-5.65,0,*51
1486278126.25,40919,9.38,72206.8,-5.35,-5.65,-5.65,0,*56
1486278127.5,40920,9.38,72206.5,-5.35,-5.65,-5.65,0,*5C
1486278128.77,40921,9.31,72204.5,-5.33,-5.65,-5.73,0,*5C
1486278130.03,40922,9.31,72204.5,-5.33,-5.77,-5.77,0,*58
1486278131.27,40923,9.31,72204.3,-5.35,-5.73,-5.73,0,*5F
1486278132.53,40924,9.38,72208.5,-5.33,-5.73,-5.73,0,*5E
1486278133.79,40925,9.31,72204.8,-5.33,-5.73,-5.73,0,*5F
1486278135.03,40926,9.31,72206.3,-5.35,-5.73,-5.73,0,*5A
1486278136.3,40927,9.31,72206.0,-5.33,-5.77,-5.77,0,*5D
1486278137.56,40928,9.31,72204.3,-5.33,-5.77,-5.77,0,*52
1486278138.84,40929,9.31,72206.8,-5.33,-5.77,-5.85,0,*5E
1486278140.08,40930,9.38,72206.0,-5.35,-5.77,-5.77,0,*5D
1486278141.36,40931,9.31,72204.5,-5.33,-5.85,-5.85,0,*5A
1486278142.64,40932,9.31,72206.8,-5.33,-5.85,-5.85,0,*59
1486278143.9,40933,9.38,72204.8,-5.33,-5.77,-5.77,0,*58
1486278145.17,40934,9.31,72206.8,-5.31,-5.73,-5.73,0,*5D
1486278146.44,40935,9.31,72204.5,-5.31,-5.73,-5.73,0,*5C
1486278147.71,40936,9.31,72204.0,-5.31,-5.73,-5.73,0,*5F
1486278148.98,40937,9.31,72204.8,-5.31,-5.73,-5.69,0,*55
1486278150.26,40938,9.38,72206.8,-5.31,-5.73,-5.69,0,*5A
1486278151.54,40939,9.31,72204.0,-5.31,-5.69,-5.69,0,*50
1486278152.81,40940,9.31,72204.5,-5.31,-5.73,-5.69,0,*55
1486278154.09,40941,9.38,72206.5,-5.31,-5.69,-5.69,0,*5F
1486278155.36,40942,9.38,72208.5,-5.31,-5.73,-5.69,0,*57
1486278156.64,40943,9.38,72210.3,-5.31,-5.69,-5.81,0,*5B
1486278157.91,40944,9.38,72206.8,-5.31,-5.73,-5.81,0,*57
1486278159.19,40945,9.31,72206.3,-5.31,-5.85,-5.73,0,*52
1486278160.46,40946,9.31,72204.0,-5.31,-5.73,-5.81,0,*55
1486278161.73,40947,9.31,72204.0,-5.31,-5.73,-5.81,0,*54
1486278163.01,40948,9.31,72206.0,-5.31,-5.69,-5.69,0,*56
1486278164.27,40949,9.31,72204.0,-5.29,-5.69,-5.73,0,*55
1486278165.52,40950,9.38,72210.3,-5.29,-5.69,-5.73,0,*5D
1486278166.79,40951,9.31,72202.0,-5.31,-5.73,-5.73,0,*5E
1486278168.06,40952,9.31,72204.5,-5.31,-5.69,-5.69,0,*5D
1486278169.32,40953,9.31,72206.8,-5.29,-5.69,-5.69,0,*55
1486278170.59,40954,9.31,72206.5,-5.31,-5.73,-5.73,0,*5B
1486278171.86,40955,9.31,72206.5,-5.31,-5.73,-5.73,0,*5A
1486278173.11,40956,9.31,72206.8,-5.29,-5.81,-5.73,0,*5D
1486278174.38,40957,9.38,72208.3,-5.31,-5.73,-5.69,0,*53
1486278175.65,40958,9.31,72206.5,-5.31,-5.73,-5.73,0,*57
1486278176.9,40959,9.31,72204.8,-5.29,-5.73,-5.69,0,*54
1486278178.17,40960,9.31,72204.3,-5.31,-5.73,-5.73,0,*5C
1486278179.41,40961,9.31,72206.8,-5.29,-5.73,-5.73,0,*54
1486278180.69,40962,9.38,72206.0,-5.31,-5.81,-5.73,0,*53
1486278181.95,40963,9.31,72206.5,-5.29,-5.85,-5.81,0,*52
1486278183.23,40964,9.38,72206.0,-5.31,-5.81,-5.81,0,*58
1486278184.51,40965,9.31,72206.3,-5.31,-5.81,-5.81,0,*59
1486278185.79,40966,9.31,72204.5,-5.31,-5.85,-5.81,0,*5E
1486278187.05,40967,9.31,72204.0,-5.29,-5.81,-5.81,0,*52
1486278188.3,40968,9.38,72204.8,-5.29,-5.81,-5.81,0,*5D
1486278189.55,40969,9.31,72202.3,-5.29,-5.73,-5.81,0,*51
1486278190.8,40970,9.31,72204.8,-5.29,-5.73,-5.73,0,*54
1486278192.06,40971,9.38,72208.3,-5.29,-5.85,-5.81,0,*51
1486278193.32,40972,9.31,72206.0,-5.29,-5.81,-5.85,0,*52
1486278194.58,40973,9.31,72204.0,-5.29,-5.85,-5.81,0,*53
1486278195.83,40974,9.31,72204.5,-5.29,-5.81,-5.73,0,*5D
1486278197.09,40975,9.31,72204.0,-5.29,-5.85,-5.81,0,*55
1486278198.33,40976,9.38,72204.0,-5.29,-5.73,-5.73,0,*52
1486278199.6,40977,9.31,72206.3,-5.31,-5.73,-5.73,0,*5A
1486278200.85,40978,9.38,72206.5,-5.29,-5.81,-5.73,0,*51
1486278202.11,40979,9.31,72206.0,-5.29,-5.81,-5.85,0,*59
1486278203.37,40980,9.38,72208.5,-5.29,-5.81,-5.81,0,*5B
1486278204.62,40981,9.31,72204.5,-5.29,-5.81,-5.73,0,*57
1486278205.89,40982,9.38,72208.0,-5.31,-5.73,-5.73,0,*50
1486278207.14,40983,9.38,72206.3,-5.29,-5.81,-5.73,0,*55
1486278208.4,40984,9.38,72208.8,-5.29,-5.85,-5.85,0,*5F
1486278209.66,40985,9.38,72208.0,-5.29,-5.81,-5.81,0,*5E
1486278210.92,40986,9.31,72204.0,-5.29,-5.81,-5.81,0,*5D
1486278212.17,40987,9.38,72210.0,-5.29,-5.81,-5.73,0,*51
1486278213.45,40988,9.38,72206.3,-5.31,-5.81,-5.81,0,*5A
1486278214.72,40989,9.31,72206.5,-5.31,-5.73,-5.81,0,*56
1486278215.98,40990,9.38,72212.8,-5.29,-5.81,-5.81,0,*5A
1486278217.23,40991,9.38,72208.3,-5.29,-5.81,-5.81,0,*5B
1486278218.49,40992,9.31,72206.3,-5.29,-5.81,-5.85,0,*5C
1486278219.75,40993,9.31,72204.5,-5.29,-5.81,-5.73,0,*54
1486278221.02,40994,9.38,72208.8,-5.31,-5.81,-5.81,0,*57
1486278222.27,40995,9.38,72204.8,-5.29,-5.73,-5.73,0,*5F
1486278223.52,40996,9.38,72206.8,-5.29,-5.73,-5.73,0,*5C
1486278224.76,40997,9.38,72208.5,-5.29,-5.73,-5.73,0,*5D
1486278226.01,40998,9.38,72208.3,-5.29,-5.73,-5.81,0,*5F
1486278227.27,40999,9.38,72208.0,-5.29,-5.81,-5.85,0,*57
1486278228.53,41000,9.38,72204.0,-5.29,-5.81,-5.85,0,*5F
1486278229.78,41001,9.38,72208.0,-5.29,-5.81,-5.81,0,*5A
1486278231.04,41002,9.38,72210.3,-5.29,-5.81,-5.85,0,*5D
1486278232.3,41003,9.31,72202.3,-5.29,-5.81,-5.85,0,*5C
1486278233.56,41004,9.38,72208.3,-5.29,-5.85,-5.81,0,*5B
1486278234.81,41005,9.31,72204.3,-5.29,-5.73,-5.81,0,*53
1486278236.08,41006,9.38,72204.8,-5.27,-5.69,-5.77,0,*5C
1486278237.33,41007,9.38,72210.8,-5.25,-5.77,-5.77,0,*50
1486278238.61,41008,9.31,72206.8,-5.27,-5.77,-5.77,0,*5D
1486278239.88,41009,9.38,72204.8,-5.27,-5.77,-5.77,0,*5C
1486278241.15,41010,9.31,72204.8,-5.27,-5.77,-5.81,0,*5D
1486278242.4,41011,9.38,72206.3,-5.29,-5.81,-5.73,0,*56
1486278243.68,41012,9.38,72208.0,-5.27,-5.69,-5.69,0,*56
1486278244.95,41013,9.31,72204.3,-5.27,-5.69,-5.77,0,*58
1486278246.23,41014,9.31,72204.0,-5.27,-5.65,-5.65,0,*50
1486278247.5,41015,9.38,72204.8,-5.27,-5.65,-5.65,0,*51
1486278248.78,41016,9.38,72206.3,-5.27,-5.65,-5.65,0,*52
1486278250.05,41017,9.31,72204.5,-5.27,-5.69,-5.65,0,*5F
1486278251.3,41018,9.38,72208.0,-5.25,-5.69,-5.65,0,*52
1486278252.58,41019,9.38,72210.0,-5.27,-5.69,-5.65,0,*51
1486278253.84,41020,9.38,72206.8,-5.27,-5.65,-5.55,0,*54
1486278255.09,41021,9.31,72204.5,-5.27,-5.69,-5.55,0,*59
1486278256.35,41022,9.38,72206.0,-5.27,-5.55,-5.65,0,*56
1486278257.6,41023,9.38,72204.8,-5.27,-5.65,-5.51,0,*53
1486278258.87,41024,9.38,72210.5,-5.27,-5.65,-5.65,0,*53
1486278260.15,41025,9.38,72206.0,-5.27,-5.69,-5.65,0,*5E
1486278261.4,41026,9.38,72206.0,-5.25,-5.65,-5.65,0,*53
1486278262.65,41027,9.31,72206.5,-5.25,-5.65,-5.69,0,*5E
1486278263.93,41028,9.38,72204.8,-5.27,-5.65,-5.65,0,*5F
1486278265.2,41029,9.38,72206.5,-5.27,-5.65,-5.65,0,*5E
1486278266.44,41030,9.38,72204.0,-5.27,-5.55,-5.55,0,*56
1486278267.67,41031,9.38,72206.8,-5.25,-5.65,-5.55,0,*56
1486278268.9,41032,9.31,72206.3,-5.25,-5.65,-5.55,0,*55
1486278270.14,41033,9.31,72204.3,-5.25,-5.65,-5.55,0,*54
1486278271.37,41034,9.38,72208.8,-5.25,-5.55,-5.65,0,*53
1486278272.58,41035,9.38,72206.0,-5.25,-5.51,-5.55,0,*55
1486278273.79,41036,9.38,72210.0,-5.25,-5.55,-5.55,0,*52
1486278275.04,41037,9.38,72204.0,-5.25,-5.65,-5.65,0,*53
1486278276.29,41038,9.38,72204.5,-5.21,-5.65,-5.65,0,*58
1486278277.55,41039,9.38,72208.0,-5.21,-5.65,-5.61,0,*5D
1486278278.8,41040,9.38,72204.5,-5.21,-5.61,-5.65,0,*53
1486278280.04,41041,9.31,72206.5,-5.21,-5.73,-5.65,0,*51
1486278281.29,41042,9.31,72204.5,-5.21,-5.65,-5.65,0,*55
1486278282.55,41043,9.38,72206.0,-5.21,-5.65,-5.65,0,*54
1486278283.8,41044,9.38,72204.8,-5.25,-5.69,-5.69,0,*57
1486278285.05,41045,9.38,72204.0,-5.25,-5.69,-5.69,0,*56
1486278286.3,41046,9.31,72206.5,-5.25,-5.69,-5.69,0,*55
1486278287.55,41047,9.38,72208.3,-5.25,-5.69,-5.77,0,*5B
1486278288.8,41048,9.38,72206.3,-5.21,-5.65,-5.65,0,*5F
1486278290.05,41049,9.38,72210.3,-5.21,-5.73,-5.65,0,*59
1486278291.3,41050,9.38,72210.3,-5.21,-5.65,-5.65,0,*56
1486278292.55,41051,9.38,72210.8,-5.25,-5.69,-5.65,0,*5F
1486278293.81,41052,9.38,72206.0,-5.21,-5.65,-5.61,0,*50
1486278295.06,41053,9.38,72210.3,-5.21,-5.65,-5.61,0,*51
1486278296.31,41054,9.31,72202.5,-5.21,-5.61,-5.65,0,*56
1486278297.58,41055,9.38,72206.3,-5.19,-5.61,-5.65,0,*5C
1486278298.83,41056,9.38,72206.5,-5.21,-5.61,-5.65,0,*54
1486278300.08,41057,9.38,72204.8,-5.21,-5.65,-5.65,0,*51
1486278301.33,41058,9.38,72204.3,-5.21,-5.65,-5.65,0,*5E
1486278302.59,41059,9.38,72206.0,-5.21,-5.65,-5.65,0,*5F
1486278303.83,41060,9.38,72206.0,-5.21,-5.61,-5.65,0,*51
1486278305.11,41061,9.38,72206.5,-5.19,-5.61,-5.65,0,*5B
1486278306.36,41062,9.38,72204.3,-5.21,-5.65,-5.65,0,*57
1486278307.61,41063,9.38,72206.0,-5.21,-5.65,-5.65,0,*56
1486278308.86,41064,9.38,72204.0,-5.21,-5.61,-5.65,0,*55
1486278310.13,41065,9.38,72204.8,-5.19,-5.65,-5.61,0,*5F
1486278311.39,41066,9.38,72206.3,-5.21,-5.65,-5.61,0,*57
1486278312.62,41067,9.38,72204.0,-5.21,-5.65,-5.51,0,*55
1486278313.89,41068,9.38,72208.5,-5.19,-5.61,-5.65,0,*52
1486278315.17,41069,9.38,72206.5,-5.19,-5.61,-5.61,0,*57
1486278316.44,41070,9.38,72208.0,-5.19,-5.61,-5.65,0,*5B
1486278317.71,41071,9.38,72204.0,-5.19,-5.61,-5.61,0,*5E
1486278318.99,41072,9.38,72206.8,-5.19,-5.61,-5.61,0,*5D
1486278320.26,41073,9.38,72206.3,-5.19,-5.65,-5.65,0,*5C
1486278321.47,41074,9.38,72208.5,-5.21,-5.51,-5.51,0,*50
1486278322.72,41075,9.38,72208.5,-5.19,-5.61,-5.51,0,*59
1486278323.97,41076,9.38,72206.8,-5.19,-5.65,-5.51,0,*5E
1486278325.19,41077,9.38,72204.0,-5.21,-5.61,-5.51,0,*50
1486278326.47,41078,9.38,72208.5,-5.19,-5.61,-5.61,0,*57
1486278327.73,41079,9.38,72204.8,-5.19,-5.51,-5.61,0,*55
1486278328.93,41080,9.38,72206.0,-5.21,-5.51,-5.51,0,*5B
1486278330.16,41081,9.38,72206.3,-5.21,-5.61,-5.51,0,*59
1486278331.39,41082,9.38,72204.8,-5.19,-5.51,-5.51,0,*52
1486278332.62,41083,9.38,72206.3,-5.19,-5.51,-5.51,0,*53
1486278333.89,41084,9.38,72206.3,-5.19,-5.65,-5.61,0,*50
1486278335.17,41085,9.38,72206.3,-5.19,-5.61,-5.61,0,*55
1486278336.45,41086,9.38,72206.8,-5.19,-5.65,-5.61,0,*52
1486278337.73,41087,9.31,72204.8,-5.19,-5.65,-5.61,0,*53
1486278339.0,41088,9.38,72206.8,-5.19,-5.61,-5.65,0,*5C
1486278340.28,41089,9.31,72204.8,-5.19,-5.65,-5.61,0,*5D
1486278341.55,41090,9.38,72206.8,-5.19,-5.61,-5.61,0,*51
1486278342.78,41091,9.38,72204.5,-5.19,-5.51,-5.47,0,*57
1486278344.03,41092,9.38,72206.8,-5.19,-5.51,-5.61,0,*50
1486278345.23,41093,9.38,72204.0,-5.13,-5.47,-5.47,0,*58
1486278346.43,41094,9.38,72210.3,-5.17,-5.47,-5.47,0,*5B
1486278347.63,41095,9.38,72204.5,-5.17,-5.47,-5.47,0,*5A
1486278348.85,41096,9.38,72206.3,-5.19,-5.51,-5.51,0,*57
1486278350.08,41097,9.38,72204.3,-5.19,-5.51,-5.51,0,*56
1486278351.28,41098,9.38,72204.8,-5.17,-5.47,-5.47,0,*57
1486278352.48,41099,9.38,72204.8,-5.17,-5.47,-5.47,0,*56
1486278353.68,41100,9.31,72206.5,-5.17,-5.55,-5.47,0,*54
1486278354.88,41101,9.38,72208.5,-5.17,-5.43,-5.47,0,*52
1486278356.07,41102,9.38,72206.3,-5.17,-5.43,-5.47,0,*51
1486278357.26,41103,9.38,72204.0,-5.17,-5.47,-5.43,0,*50
1486278358.46,41104,9.38,72210.3,-5.17,-5.47,-5.43,0,*57
1486278359.66,41105,9.38,72204.8,-5.17,-5.47,-5.47,0,*52
1486278360.85,41106,9.31,72204.8,-5.17,-5.43,-5.43,0,*51
1486278362.05,41107,9.31,72206.0,-5.17,-5.39,-5.43,0,*5D
1486278363.25,41108,9.38,72208.0,-5.17,-5.47,-5.55,0,*5C
1486278364.44,41109,9.38,72204.5,-5.13,-5.43,-5.43,0,*5A
1486278365.64,41110,9.38,72208.0,-5.13,-5.43,-5.43,0,*52
1486278366.83,41111,9.38,72204.5,-5.17,-5.47,-5.43,0,*53
1486278368.04,41112,9.31,72202.3,-5.17,-5.47,-5.55,0,*57
1486278369.25,41113,9.38,72206.8,-5.17,-5.55,-5.55,0,*55
1486278370.46,41114,9.38,72206.3,-5.17,-5.55,-5.55,0,*52
1486278371.66,41115,9.38,72206.8,-5.13,-5.55,-5.51,0,*53
1486278372.89,41116,9.31,72202.8,-5.17,-5.61,-5.55,0,*57
1486278374.1,41117,9.31,72204.8,-5.13,-5.55,-5.55,0,*55
1486278375.32,41118,9.38,72208.3,-5.17,-5.61,-5.55,0,*59
1486278376.53,41119,9.38,72204.0,-5.17,-5.47,-5.55,0,*5C
1486278377.73,41120,9.31,72204.8,-5.13,-5.51,-5.51,0,*51
1486278378.93,41121,9.31,72204.0,-5.13,-5.51,-5.51,0,*50
1486278380.13,41122,9.38,72204.8,-5.13,-5.51,-5.43,0,*50
1486278381.36,41123,9.31,72206.5,-5.17,-5.61,-5.55,0,*51
1486278382.58,41124,9.38,72210.5,-5.17,-5.61,-5.47,0,*55
1486278383.78,41125,9.38,72204.8,-5.13,-5.51,-5.55,0,*50
1486278384.99,41126,9.38,72206.3,-5.13,-5.55,-5.55,0,*57
1486278386.2,41127,9.38,72208.0,-5.13,-5.51,-5.55,0,*52
1486278387.4,41128,9.38,72208.3,-5.13,-5.51,-5.51,0,*59
1486278388.61,41129,9.38,72210.3,-5.13,-5.51,-5.51,0,*58
1486278389.8,41130,9.38,72208.5,-5.13,-5.51,-5.43,0,*53
1486278391.0,41131,9.38,72208.3,-5.13,-5.39,-5.43,0,*5C
1486278392.19,41132,9.38,72206.3,-5.13,-5.43,-5.43,0,*52
1486278393.38,41133,9.38,72204.8,-5.13,-5.43,-5.43,0,*53
1486278394.57,41134,9.38,72208.5,-5.13,-5.43,-5.43,0,*54
1486278395.77,41135,9.38,72206.8,-5.13,-5.43,-5.43,0,*55
1486278396.98,41136,9.31,72206.8,-5.11,-5.43,-5.43,0,*54
1486278398.2,41137,9.38,72206.0,-5.11,-5.43,-5.43,0,*55
1486278399.41,41138,9.31,72206.0,-5.11,-5.43,-5.39,0,*57
1486278400.6,41139,9.31,72204.0,-5.13,-5.43,-5.43,0,*59
1486278401.82,41140,9.38,72210.3,-5.11,-5.43,-5.43,0,*55
1486278403.03,41141,9.38,72208.0,-5.11,-5.43,-5.39,0,*59
1486278404.23,41142,9.38,72206.3,-5.09,-5.39,-5.39,0,*5E
1486278405.45,41143,9.38,72208.8,-5.11,-5.39,-5.43,0,*5B
1486278406.66,41144,9.38,72206.3,-5.11,-5.43,-5.43,0,*51
1486278407.88,41145,9.38,72210.5,-5.11,-5.43,-5.39,0,*5D
1486278409.09,41146,9.38,72208.3,-5.11,-5.43,-5.43,0,*53
1486278410.31,41147,9.38,72208.3,-5.11,-5.39,-5.43,0,*5F
1486278411.5,41148,9.38,72206.5,-5.09,-5.35,-5.39,0,*58
1486278412.7,41149,9.38,72204.8,-5.09,-5.35,-5.35,0,*55
1486278413.9,41150,9.38,72208.8,-5.09,-5.39,-5.39,0,*5D
1486278415.12,41151,9.38,72208.8,-5.11,-5.39,-5.39,0,*55
1486278416.31,41152,9.38,72206.8,-5.09,-5.39,-5.39,0,*5F
1486278417.51,41153,9.38,72210.0,-5.09,-5.39,-5.35,0,*52
1486278418.7,41154,9.38,72210.3,-5.09,-5.39,-5.35,0,*55
1486278419.9,41155,9.38,72210.0,-5.09,-5.35,-5.35,0,*58
1486278421.15,41156,9.38,72206.0,-5.11,-5.39,-5.31,0,*5A
1486278422.36,41157,9.38,72208.8,-5.11,-5.39,-5.39,0,*53
1486278423.61,41158,9.38,72206.8,-5.11,-5.39,-5.31,0,*54
1486278424.83,41159,9.38,72208.0,-5.09,-5.27,-5.35,0,*57
1486278426.03,41160,9.38,72206.3,-5.09,-5.35,-5.35,0,*5E
1486278427.28,41161,9.38,72208.5,-5.09,-5.27,-5.27,0,*5F
1486278428.53,41162,9.38,72208.3,-5.09,-5.27,-5.23,0,*58
1486278429.81,41163,9.38,72206.3,-5.07,-5.23,-5.19,0,*5A
1486278431.09,41164,9.38,72208.3,-5.07,-5.31,-5.23,0,*57
1486278432.37,41165,9.38,72206.3,-5.07,-5.23,-5.23,0,*55
1486278433.65,41166,9.38,72206.8,-5.07,-5.23,-5.19,0,*5F
1486278434.9,41167,9.38,72208.5,-5.07,-5.23,-5.35,0,*50
1486278436.14,41168,9.38,72206.8,-5.07,-5.31,-5.35,0,*5C
1486278437.36,41169,9.38,72206.5,-5.07,-5.35,-5.35,0,*59
1486278438.56,41170,9.38,72206.3,-5.05,-5.43,-5.35,0,*52
1486278439.75,41171,9.38,72210.8,-5.05,-5.43,-5.47,0,*56
1486278440.94,41172,9.38,72208.0,-5.05,-5.43,-5.43,0,*51
1486278442.16,41173,9.38,72204.0,-5.07,-5.35,-5.35,0,*52
1486278443.36,41174,9.38,72206.5,-5.05,-5.35,-5.35,0,*57
1486278444.56,41175,9.38,72208.0,-5.05,-5.35,-5.35,0,*56
1486278445.81,41176,9.38,72204.3,-5.07,-5.35,-5.31,0,*53
1486278447.08,41177,9.38,72208.3,-5.07,-5.31,-5.31,0,*56
1486278448.31,41178,9.38,72208.8,-5.05,-5.35,-5.31,0,*5F
1486278449.52,41179,9.38,72206.5,-5.07,-5.43,-5.35,0,*59
1486278450.72,41180,9.38,72206.3,-5.05,-5.43,-5.47,0,*58
1486278451.93,41181,9.38,72206.0,-5.07,-5.43,-5.43,0,*5F
1486278453.13,41182,9.38,72206.5,-5.05,-5.47,-5.43,0,*5A
1486278454.35,41183,9.31,72202.0,-5.07,-5.43,-5.35,0,*5C
1486278455.56,41184,9.38,72206.5,-5.07,-5.43,-5.43,0,*5A
1486278456.78,41185,9.38,72208.0,-5.07,-5.43,-5.35,0,*5A
1486278458.0,41186,9.38,72206.8,-5.07,-5.35,-5.35,0,*58
1486278459.19,41187,9.38,72206.5,-5.05,-5.35,-5.35,0,*5B
1486278460.41,41188,9.38,72204.8,-5.07,-5.35,-5.35,0,*56
1486278461.61,41189,9.38,72206.0,-5.05,-5.35,-5.43,0,*54
1486278462.83,41190,9.38,72206.5,-5.07,-5.43,-5.43,0,*5F
1486278464.02,41191,9.38,72208.0,-5.05,-5.43,-5.43,0,*5C
1486278465.24,41192,9.38,72208.0,-5.07,-5.43,-5.47,0,*59
1486278466.44,41193,9.38,72206.8,-5.05,-5.47,-5.47,0,*5E
1486278467.64,41194,9.38,72206.5,-5.05,-5.47,-5.47,0,*59
1486278468.84,41195,9.38,72204.3,-5.05,-5.47,-5.47,0,*58
1486278470.05,41196,9.38,72206.5,-5.05,-5.55,-5.55,0,*5B
1486278471.26,41197,9.38,72204.5,-5.05,-5.55,-5.55,0,*5A
1486278472.47,41198,9.38,72206.8,-5.05,-5.55,-5.55,0,*55
1486278473.68,41199,9.38,72204.8,-5.05,-5.47,-5.55,0,*57
1486278474.93,41200,9.38,72200.5,-5.05,-5.61,-5.61,0,*57
1486278476.13,41201,9.38,72210.8,-5.05,-5.47,-5.47,0,*56
1486278477.36,41202,9.38,72208.3,-5.07,-5.55,-5.47,0,*54
1486278478.55,41203,9.38,72206.8,-5.05,-5.43,-5.47,0,*50
1486278479.75,41204,9.38,72204.8,-5.05,-5.47,-5.47,0,*53
1486278480.95,41205,9.38,72204.8,-5.05,-5.47,-5.47,0,*52
1486278482.15,41206,9.38,72206.8,-5.05,-5.47,-5.47,0,*51
1486278483.35,41207,9.38,72206.3,-5.05,-5.47,-5.47,0,*50
1486278484.55,41208,9.38,72206.0,-5.05,-5.47,-5.43,0,*5B
1486278485.75,41209,9.38,72200.0,-5.05,-5.47,-5.43,0,*5A
1486278486.95,41210,9.38,72204.8,-5.05,-5.43,-5.43,0,*56
1486278488.15,41211,9.38,72206.3,-5.05,-5.47,-5.47,0,*57
1486278489.35,41212,9.38,72206.3,-5.05,-5.47,-5.43,0,*50
1486278490.54,41213,9.38,72206.5,-5.05,-5.43,-5.47,0,*51
1486278491.74,41214,9.38,72204.8,-5.05,-5.43,-5.43,0,*52
1486278492.93,41215,9.38,72206.8,-5.05,-5.43,-5.47,0,*57
1486278494.13,41216,9.38,72204.8,-5.05,-5.47,-5.47,0,*50
1486278495.33,41217,9.38,72208.0,-5.05,-5.47,-5.47,0,*51
1486278496.55,41218,9.38,72208.0,-5.03,-5.43,-5.39,0,*55
1486278497.75,41219,9.38,72210.0,-5.05,-5.47,-5.47,0,*5F
1486278498.95,41220,9.38,72210.3,-5.05,-5.47,-5.47,0,*55
1486278500.15,41221,9.38,72206.0,-5.05,-5.47,-5.47,0,*54
1486278501.37,41222,9.38,72206.8,-5.03,-5.51,-5.43,0,*52
1486278502.6,41223,9.38,72210.8,-5.03,-5.51,-5.51,0,*50
1486278503.81,41224,9.38,72206.0,-5.05,-5.55,-5.55,0,*51
1486278505.03,41225,9.38,72206.0,-5.03,-5.51,-5.51,0,*56
1486278506.25,41226,9.38,72202.8,-5.03,-5.51,-5.43,0,*56
1486278507.48,41227,9.38,72206.0,-5.03,-5.51,-5.51,0,*54
1486278508.7,41228,9.38,72202.0,-5.03,-5.51,-5.51,0,*5B
1486278509.91,41229,9.38,72204.8,-5.05,-5.47,-5.47,0,*5C
1486278511.12,41230,9.38,72206.8,-5.03,-5.43,-5.39,0,*5F
1486278512.34,41231,9.38,72208.3,-5.03,-5.39,-5.39,0,*53
1486278513.56,41232,9.38,72204.8,-5.03,-5.39,-5.43,0,*5D
1486278514.77,41233,9.38,72206.3,-5.03,-5.43,-5.43,0,*51
1486278515.99,41234,9.38,72208.0,-5.03,-5.39,-5.43,0,*5B
1486278517.21,41235,9.38,72210.3,-5.03,-5.39,-5.39,0,*57
1486278518.42,41236,9.38,72210.5,-5.03,-5.39,-5.39,0,*54
1486278519.64,41237,9.38,72210.3,-5.03,-5.43,-5.43,0,*55
1486278520.86,41238,9.38,72210.5,-5.03,-5.51,-5.51,0,*5A
1486278522.09,41239,9.38,72210.5,-5.03,-5.55,-5.51,0,*5F